This is the latest recevied weather packets stored in our database for station/object EA1JAV-10. If no packets are shown the sender has not sent any weather packets the latest 10 day(s).
| Time | Temp. | Humidity | Pressure | Rain* | Wind** | Luminosity | Snow |
|---|---|---|---|---|---|---|---|
| 1788347206 | 21.67° C | 45% | 1008.9 hPa | - | - | - | - |
| 1788345406 | 20.56° C | 47% | 1009.1 hPa | - | - | - | - |
| 1788343606 | 20.56° C | 47% | 1009.3 hPa | - | - | - | - |
| 1788341806 | 20° C | 46% | 1009.3 hPa | - | - | - | - |
| 1788340006 | 20° C | 46% | 1009.2 hPa | - | - | - | - |
| 1788338206 | 20° C | 46% | 1009 hPa | - | - | - | - |
| 1788336406 | 20° C | 46% | 1009.1 hPa | - | - | - | - |
| 1788334606 | 20° C | 46% | 1009 hPa | - | - | - | - |
| 1788332806 | 20° C | 45% | 1008.5 hPa | - | - | - | - |
| 1788331005 | 20° C | 45% | 1008 hPa | - | - | - | - |
| 1788329205 | 20° C | 45% | 1007.8 hPa | - | - | - | - |
| 1788327405 | 20° C | 44% | 1007.8 hPa | - | - | - | - |
| 1788325605 | 20° C | 44% | 1007.6 hPa | - | - | - | - |
| 1788323805 | 20.56° C | 44% | 1007.4 hPa | - | - | - | - |
| 1788322005 | 20.56° C | 44% | 1007.6 hPa | - | - | - | - |
| 1788320205 | 20.56° C | 43% | 1007.5 hPa | - | - | - | - |
| 1788318405 | 21.11° C | 43% | 1007.6 hPa | - | - | - | - |
| 1788316605 | 21.11° C | 44% | 1007.4 hPa | - | - | - | - |
| 1788314804 | 21.67° C | 44% | 1007.6 hPa | - | - | - | - |
| 1788313004 | 21.67° C | 44% | 1007.7 hPa | - | - | - | - |
| 1788311204 | 21.67° C | 44% | 1007.8 hPa | - | - | - | - |
| 1788309404 | 21.67° C | 44% | 1007.9 hPa | - | - | - | - |
| 1788307627 | 22.22° C | 44% | 1007.8 hPa | - | - | - | - |
| 1788305804 | 22.22° C | 44% | 1007.8 hPa | - | - | - | - |
| 1788304004 | 22.78° C | 44% | 1007.9 hPa | - | - | - | - |
* Rain since midnight (hover to see other rain measurements)
** Current wind speed in m/s (hover to see current wind gust speed)